Showing default

OPS 4682 (SNAPSHOT), 1314

Orbit data source: Space-Track

OPS 4682 (SNAPSHOT), 1314 is an American payload satellite in LEO that was launched on Sat, 03 Apr 1965 UTC via an ATLAS SLV-3 AGENA D launch vehicle from the Air Force Western Test Range (AFWTR). Payload-class satellites include a variety of spacecraft equipped with specific instruments for various scientific and technological missions. These include communications satellites like Starlink; space stations such as the ISS; scientific satellites like the Hubble; Earth observation satellites from companies like Planet Labs, Umbra, and HawkEye 360; GPS; miniature CubeSats for education and research; and military/defense satellites.

Loading next visibility...
Identifier
1314, 1965-027A
Orbit
LEO
Country
Flag of USUS
Related business
Manufacturer
RCA/East Windsor
Mission
Spacecraft
Bus & Motor
SNAP 10 REACTOR, Unknown motor
Mass
2,386 kg wet, 422 kg dry
Launch date (UTC)
1965-04-03 (61 years ago)
Launch vehicle
ATLAS SLV-3 AGENA D
Launch site
Air Force Western Test Range (AFWTR)
Object type
Payload
Rocket body
Debris
Shape & HBR
Unknown shape, 2.3 m
Radar Cross Section
Large (>1 m²)

Expand to show TLE details & history
Last TLE update: 12 hours ago

TLE from 12 hours ago
0 OPS 4682 (SNAPSHOT)
1  1314U 65027A   25310.58109117  .00000026  00000-0  70175-4 0  9994
2  1314  90.2409   1.3998 0031236 148.6556   7.8111 12.91799684602287
Epoch: 2025-11-06T13:56Z
TLE epoch observation values (Epoch: 2025-11-06T13:56:46.277Z)
Latitude
23.50251°
Longitude
-73.72614°
Altitude
1,273.47 km
Speed
7.232 km/s
True Right ascension
12h 06m 00s
True Declination
23° 23' 08"
Sunlit
Object was in daylight at epoch
Visualization orbit readout
Latitude
Unknown
Longitude
Unknown
Altitude
Unknown
Speed
Unknown
Apparent Right ascension
Unknown
Apparent Declination
Unknown
Sunlit
N/A
Visualization observer readout
Local Sidereal Time
22:07:50
Azimuth
Unknown
Elevation
Unknown
Doppler factor
Unknown
Orbital elements
Apogee altitude
1,315.482 km
Perigee altitude
1,267.568 km
Semi-major axis
7,669.662 km
Eccentricity
0.00312
Inclination
90.2409°
RAAN
1.3998°
Arg. of periapsis
148.6556°
True anomaly
7.85994°
Mean anomaly
7.8111°
Eccentric anomaly
7.8355°
Mean motion
3.23131 °/min
Orbital period
111.41 mins
BSTAR
0.000070175
Loading maneuver chart data...
Computing Atmospheric mass density...
Loading historical data...
Loading historical data...
Loading historical data...
Loading historical data...
Loading historical data...
Loading historical data...
Loading historical data...

Documentation

Showing up to 5 results
|